This is the latest recevied weather packets stored in our database for station/object AI5BL. If no packets are shown the sender has not sent any weather packets the latest 10 day(s).
| Time | Temp. | Humidity | Pressure | Rain* | Wind** | Luminosity | Snow |
|---|---|---|---|---|---|---|---|
| 1777570670 | 18.89° C | 93% | 1015.7 hPa | 0 mm | - | 135 W/m² | - |
| 1777570368 | 18.89° C | 94% | 1016 hPa | 0 mm | - | 230 W/m² | - |
| 1777570063 | 18.89° C | 91% | 1016 hPa | 0 mm | - | 155 W/m² | - |
| 1777569758 | 18.89° C | 94% | 1016.3 hPa | 0 mm | - | 180 W/m² | - |
| 1777569454 | 18.89° C | 94% | 1016.2 hPa | 0 mm | - | 171 W/m² | - |
| 1777569152 | 18.89° C | 93% | 1015.9 hPa | 0 mm | - | 118 W/m² | - |
| 1777568848 | 18.89° C | 94% | 1015.7 hPa | 0 mm | - | 243 W/m² | - |
| 1777568546 | 18.89° C | 93% | 1016 hPa | 0 mm | - | 185 W/m² | - |
| 1777568241 | 18.89° C | 93% | 1016.3 hPa | 0 mm | - | 169 W/m² | - |
| 1777567939 | 18.89° C | 91% | 1016.5 hPa | 0 mm | - | 153 W/m² | - |
| 1777567635 | 18.89° C | 91% | 1016.4 hPa | 0 mm | - | 180 W/m² | - |
| 1777567332 | 18.89° C | 92% | 1016.4 hPa | 0 mm | - | 217 W/m² | - |
| 1777567031 | 18.89° C | 92% | 1016.2 hPa | 0 mm | - | 226 W/m² | - |
| 1777566728 | 18.89° C | 93% | 1016.5 hPa | 0 mm | - | 183 W/m² | - |
| 1777566426 | 18.33° C | 92% | 1016.5 hPa | 0 mm | - | 260 W/m² | - |
| 1777566123 | 18.33° C | 94% | 1016.4 hPa | 0 mm | - | 250 W/m² | - |
| 1777565818 | 18.33° C | 96% | 1016.5 hPa | 0 mm | - | 275 W/m² | - |
| 1777565514 | 18.33° C | 95% | 1016.5 hPa | 0 mm | - | 239 W/m² | - |
| 1777565211 | 18.33° C | 97% | 1016.4 hPa | 0 mm | - | 329 W/m² | - |
| 1777564907 | 18.33° C | 97% | 1016.2 hPa | 0 mm | - | 317 W/m² | - |
| 1777564602 | 18.33° C | 98% | 1016.1 hPa | 0 mm | - | 248 W/m² | - |
| 1777564298 | 17.78° C | 98% | 1016 hPa | 0 mm | - | 257 W/m² | - |
| 1777563995 | 17.78° C | 99% | 1016.1 hPa | 0 mm | - | 235 W/m² | - |
| 1777563691 | 17.78° C | 99% | 1015.9 hPa | 0 mm | - | 178 W/m² | - |
| 1777563387 | 17.78° C | 99% | 1016.4 hPa | 1.27 mm | - | 160 W/m² | - |
* Rain latest hour (hover to see other rain measurements)
** Current wind speed in m/s (hover to see current wind gust speed)